,,,PA_Meas_PMT16A,,PR_Meas_QMR101_102,,RH_Meas_QMH101,,SR_Meas_QMS101,,TA_Meas_QMH101,,GenWind,,GenWind,
date,time,status,PA,status,PR,status,RH,status,SR,status,TA,status,DirAvg,status,SpdAvg,
2009-07-19, 00:00:04,VALID,1001.06,VALID,0,VALID,87.0921,VALID,0,VALID,24.4214,VALID,90,VALID,0.702734,
2009-07-19, 00:01:04,VALID,1001.04,VALID,0,VALID,87.1989,VALID,0,VALID,24.4428,VALID,90,VALID,0.820313,
2009-07-19, 00:02:04,VALID,1001.02,VALID,0,VALID,87.4583,VALID,0,VALID,24.4409,VALID,86,VALID,0.880859,
2009-07-19, 00:03:04,VALID,1001.01,VALID,0,VALID,87.2676,VALID,0,VALID,24.4214,VALID,80,VALID,0.929688,
2009-07-19, 00:04:04,VALID,1000.99,VALID,0,VALID,86.8327,VALID,0,VALID,24.4019,VALID,79,VALID,1.11133,
2009-07-19, 00:05:04,VALID,1000.96,VALID,0,VALID,86.5428,VALID,0,VALID,24.4019,VALID,78,VALID,1.00586,
2009-07-19, 00:06:04,VALID,1000.99,VALID,0,VALID,86.3444,VALID,0,VALID,24.3842,VALID,79,VALID,1.07852,
2009-07-19, 00:07:04,VALID,1000.97,VALID,0,VALID,86.2757,VALID,0.112286,VALID,24.3629,VALID,80,VALID,0.887109,
2009-07-19, 00:08:04,VALID,1001.01,VALID,0,VALID,86.703,VALID,0.112286,VALID,24.4037,VALID,81,VALID,0.808594,
2009-07-19, 00:09:04,VALID,1001,VALID,0,VALID,86.8327,VALID,0,VALID,24.4019,VALID,81,VALID,0.716406,
2009-07-19, 00:10:04,VALID,1001.02,VALID,0,VALID,86.8022,VALID,0,VALID,24.3824,VALID,73,VALID,0.915234,
2009-07-19, 00:11:04,VALID,1001.02,VALID,0,VALID,86.6801,VALID,0,VALID,24.4037,VALID,73,VALID,0.895312,
2009-07-19, 00:12:04,VALID,1001.02,VALID,0,VALID,86.703,VALID,0,VALID,24.4446,VALID,73,VALID,0.817969,
2009-07-19, 00:13:04,VALID,1001.03,VALID,0,VALID,86.6496,VALID,0,VALID,24.4233,VALID,73,VALID,0.757813,
2009-07-19, 00:14:04,VALID,1001.01,VALID,0,VALID,86.4436,VALID,0,VALID,24.4251,VALID,75,VALID,0.75,
2009-07-19, 00:15:04,VALID,1001,VALID,0,VALID,86.0316,VALID,0,VALID,24.3842,VALID,75,VALID,0.836328,
2009-07-19, 00:16:04,VALID,1001.01,VALID,0,VALID,85.94,VALID,0,VALID,24.3647,VALID,75,VALID,0.6875,
2009-07-19, 00:17:04,VALID,1001.01,VALID,0,VALID,85.818,VALID,0,VALID,24.3647,VALID,75,VALID,0.607813,
2009-07-19, 00:18:04,VALID,1000.99,VALID,0,VALID,85.6654,VALID,0,VALID,24.3452,VALID,75,VALID,0.546094,
2009-07-19, 00:19:04,VALID,1000.98,VALID,0,VALID,84.9253,VALID,0,VALID,24.3257,VALID,79,VALID,0.553516,
2009-07-19, 00:20:04,VALID,1000.98,VALID,0,VALID,84.7193,VALID,0,VALID,24.3647,VALID,82,VALID,0.514453,
2009-07-19, 00:21:04,VALID,1000.94,VALID,0,VALID,84.8719,VALID,0,VALID,24.4037,VALID,96,VALID,0.568359,
2009-07-19, 00:22:04,VALID,1000.96,VALID,0,VALID,85.2839,VALID,0,VALID,24.4837,VALID,101,VALID,0.658203,
2009-07-19, 00:23:04,VALID,1000.95,VALID,0,VALID,85.0932,VALID,0,VALID,24.5032,VALID,101,VALID,0.596094,
2009-07-19, 00:24:04,VALID,1000.93,VALID,0,VALID,85.8027,VALID,0,VALID,24.5013,VALID,103,VALID,0.574609,
2009-07-19, 00:25:04,VALID,1000.92,VALID,0,VALID,86.1232,VALID,0,VALID,24.5618,VALID,103,VALID,0.589453,
2009-07-19, 00:26:04,VALID,1000.95,VALID,0,VALID,86.8251,VALID,0,VALID,24.5599,VALID,103,VALID,0.570703,
2009-07-19, 00:27:04,VALID,1000.89,VALID,0,VALID,87.3515,VALID,0,VALID,24.5989,VALID,103,VALID,0.449219,
2009-07-19, 00:28:04,VALID,1000.93,VALID,0,VALID,87.7559,VALID,0,VALID,24.5989,VALID,103,VALID,0.51875,
2009-07-19, 00:29:04,VALID,1000.87,VALID,0,VALID,88.0687,VALID,0,VALID,24.6184,VALID,103,VALID,0.521484,
2009-07-19, 00:30:04,VALID,1000.89,VALID,0,VALID,87.672,VALID,0,VALID,24.6184,VALID,108,VALID,0.660547,
2009-07-19, 00:31:04,VALID,1000.85,VALID,0,VALID,87.1455,VALID,0,VALID,24.6203,VALID,108,VALID,0.616406,
2009-07-19, 00:32:04,VALID,1000.86,VALID,0,VALID,87.2218,VALID,0,VALID,24.6184,VALID,108,VALID,0.648828,
2009-07-19, 00:33:04,VALID,1000.84,VALID,0,VALID,86.9624,VALID,0,VALID,24.6398,VALID,108,VALID,0.655078,
2009-07-19, 00:34:04,VALID,1000.84,VALID,0,VALID,86.703,VALID,0,VALID,24.6184,VALID,94,VALID,0.859375,
2009-07-19, 00:35:04,VALID,1000.82,VALID,0,VALID,86.2834,VALID,0,VALID,24.6594,VALID,90,VALID,0.944141,
2009-07-19, 00:36:04,VALID,1000.79,VALID,0,VALID,86.1003,VALID,0,VALID,24.6575,VALID,90,VALID,0.826172,
2009-07-19, 00:37:04,VALID,1000.76,VALID,0,VALID,86.085,VALID,0,VALID,24.6965,VALID,77,VALID,0.772656,
2009-07-19, 00:38:04,VALID,1000.77,VALID,0,VALID,86.085,VALID,0,VALID,24.677,VALID,76,VALID,0.650391,
2009-07-19, 00:39:04,VALID,1000.75,VALID,0,VALID,86.2376,VALID,0,VALID,24.677,VALID,76,VALID,0.686328,
2009-07-19, 00:40:04,VALID,1000.76,VALID,0,VALID,86.6877,VALID,0,VALID,24.6789,VALID,76,VALID,0.639453,
2009-07-19, 00:41:04,VALID,1000.73,VALID,0,VALID,87.2294,VALID,0,VALID,24.638,VALID,74,VALID,0.647266,
2009-07-19, 00:42:04,VALID,1000.74,VALID,0,VALID,87.4812,VALID,0,VALID,24.6184,VALID,68,VALID,0.670313,
2009-07-19, 00:43:04,VALID,1000.7,VALID,0,VALID,87.5041,VALID,0,VALID,24.5599,VALID,67,VALID,0.673047,
2009-07-19, 00:44:04,VALID,1000.69,VALID,0,VALID,87.176,VALID,0,VALID,24.5227,VALID,65,VALID,0.595703,
2009-07-19, 00:45:04,VALID,1000.67,VALID,0,VALID,85.8714,VALID,0,VALID,24.4428,VALID,65,VALID,0.556641,
2009-07-19, 00:46:04,VALID,1000.65,VALID,0,VALID,85.7722,VALID,0,VALID,24.4428,VALID,65,VALID,0.569922,
2009-07-19, 00:47:04,VALID,1000.65,VALID,0,VALID,85.7264,VALID,0,VALID,24.4214,VALID,65,VALID,0.509375,
2009-07-19, 00:48:04,VALID,1000.67,VALID,0,VALID,85.4517,VALID,0,VALID,24.4623,VALID,65,VALID,0.564453,
2009-07-19, 00:49:04,VALID,1000.66,VALID,0,VALID,85.0703,VALID,0,VALID,24.4818,VALID,62,VALID,0.459766,
2009-07-19, 00:50:05,VALID,1000.69,VALID,0,VALID,85.1618,VALID,0,VALID,24.5013,VALID,62,VALID,0.417578,
2009-07-19, 00:51:05,VALID,1000.68,VALID,0,VALID,85.0397,VALID,0,VALID,24.4818,VALID,62,VALID,0.471484,
2009-07-19, 00:52:05,VALID,1000.66,VALID,0,VALID,85.1771,VALID,0,VALID,24.4623,VALID,48,VALID,0.580078,
2009-07-19, 00:53:05,VALID,1000.69,VALID,0,VALID,85.4594,VALID,0,VALID,24.4428,VALID,39,VALID,0.697656,
2009-07-19, 00:54:05,VALID,1000.69,VALID,0,VALID,85.9934,VALID,0,VALID,24.4233,VALID,31,VALID,0.895703,
2009-07-19, 00:55:05,VALID,1000.68,VALID,0,VALID,86.3444,VALID,0,VALID,24.4233,VALID,26,VALID,0.860547,
2009-07-19, 00:56:05,VALID,1000.67,VALID,0,VALID,86.8098,VALID,0,VALID,24.4056,VALID,26,VALID,0.873438,
2009-07-19, 00:57:05,VALID,1000.69,VALID,0,VALID,87.176,VALID,0,VALID,24.3257,VALID,26,VALID,0.807422,
2009-07-19, 00:58:05,VALID,1000.68,VALID,0,VALID,87.2676,VALID,0,VALID,24.2885,VALID,26,VALID,0.652734,
2009-07-19, 00:59:05,VALID,1000.71,VALID,0,VALID,87.5117,VALID,0,VALID,24.2281,VALID,26,VALID,0.556641,
2009-07-19, 01:00:05,VALID,1000.68,VALID,0,VALID,87.9466,VALID,0,VALID,24.1696,VALID,26,VALID,0.382031,
2009-07-19, 01:01:05,VALID,1000.66,VALID,0,VALID,88.0611,VALID,0,VALID,24.15,VALID,26,VALID,0.395703,
2009-07-19, 01:02:05,VALID,1000.66,VALID,0,VALID,88.1603,VALID,0,VALID,24.1714,VALID,26,VALID,0.222656,
2009-07-19, 01:03:05,VALID,1000.7,VALID,0,VALID,88.145,VALID,0,VALID,24.1305,VALID,26,VALID,0.0121094,
2009-07-19, 01:04:05,VALID,1000.7,VALID,0,VALID,88.0687,VALID,0,VALID,24.1519,VALID,26,VALID,0,
2009-07-19, 01:05:05,VALID,1000.68,VALID,0,VALID,88.0458,VALID,0,VALID,24.15,VALID,26,VALID,0,
2009-07-19, 01:06:05,VALID,1000.7,VALID,0,VALID,88.0229,VALID,0,VALID,24.1305,VALID,26,VALID,0,
2009-07-19, 01:07:05,VALID,1000.68,VALID,0,VALID,87.9619,VALID,0,VALID,24.111,VALID,26,VALID,0,
2009-07-19, 01:08:05,VALID,1000.68,VALID,0,VALID,87.9771,VALID,0,VALID,24.1305,VALID,26,VALID,0,
2009-07-19, 01:09:05,VALID,1000.67,VALID,0,VALID,88.0153,VALID,0,VALID,24.15,VALID,26,VALID,0,
2009-07-19, 01:10:05,VALID,1000.65,VALID,0,VALID,88.0382,VALID,0,VALID,24.15,VALID,26,VALID,0,
2009-07-19, 01:11:05,VALID,1000.67,VALID,0,VALID,87.9848,VALID,0,VALID,24.15,VALID,26,VALID,0,
2009-07-19, 01:12:05,VALID,1000.64,VALID,0,VALID,88.0153,VALID,0,VALID,24.15,VALID,26,VALID,0,
2009-07-19, 01:13:05,VALID,1000.62,VALID,0,VALID,88.1526,VALID,0,VALID,24.1714,VALID,26,VALID,0,
2009-07-19, 01:14:05,VALID,1000.65,VALID,0,VALID,88.3205,VALID,0,VALID,24.15,VALID,26,VALID,0,
2009-07-19, 01:15:05,VALID,1000.63,VALID,0,VALID,88.1832,VALID,0,VALID,24.15,VALID,26,VALID,0,
2009-07-19, 01:16:05,VALID,1000.63,VALID,0,VALID,88.4273,VALID,0,VALID,24.1305,VALID,26,VALID,0,
2009-07-19, 01:17:05,VALID,1000.62,VALID,0,VALID,88.3357,VALID,0,VALID,24.1519,VALID,26,VALID,0,
2009-07-19, 01:18:05,VALID,1000.61,VALID,0,VALID,88.3739,VALID,0,VALID,24.1324,VALID,26,VALID,0,
2009-07-19, 01:19:05,VALID,1000.6,VALID,0,VALID,88.5875,VALID,0,VALID,24.0915,VALID,26,VALID,0.401563,
2009-07-19, 01:20:05,VALID,1000.59,VALID,0,VALID,88.618,VALID,0,VALID,24.072,VALID,26,VALID,0.603516,
2009-07-19, 01:21:05,VALID,1000.56,VALID,0,VALID,88.8164,VALID,0,VALID,24.0525,VALID,26,VALID,0.579297,
2009-07-19, 01:22:05,VALID,1000.56,VALID,0,VALID,88.9232,VALID,0,VALID,24.0134,VALID,26,VALID,0.578516,
2009-07-19, 01:23:05,VALID,1000.53,VALID,0,VALID,88.8622,VALID,0,VALID,24.0134,VALID,26,VALID,0.482422,
2009-07-19, 01:24:05,VALID,1000.52,VALID,0,VALID,88.8469,VALID,0,VALID,23.9939,VALID,26,VALID,0.267969,
2009-07-19, 01:25:05,VALID,1000.49,VALID,0,VALID,88.8927,VALID,0,VALID,23.9531,VALID,26,VALID,0.233984,
2009-07-19, 01:26:05,VALID,1000.5,VALID,0,VALID,88.9919,VALID,0,VALID,23.9549,VALID,26,VALID,0.211719,
2009-07-19, 01:27:05,VALID,1000.48,VALID,0,VALID,89.0453,VALID,0,VALID,23.9549,VALID,26,VALID,0.151172,
2009-07-19, 01:28:05,VALID,1000.47,VALID,0,VALID,89.0758,VALID,0,VALID,23.9354,VALID,26,VALID,0.161719,
2009-07-19, 01:29:05,VALID,1000.48,VALID,0,VALID,89.1826,VALID,0,VALID,23.9159,VALID,26,VALID,0.0316406,
2009-07-19, 01:30:05,VALID,1000.47,VALID,0,VALID,89.3047,VALID,0,VALID,23.9159,VALID,26,VALID,0.177734,
2009-07-19, 01:31:05,VALID,1000.46,VALID,0,VALID,89.3276,VALID,0,VALID,23.9159,VALID,26,VALID,0.19375,
2009-07-19, 01:32:05,VALID,1000.44,VALID,0,VALID,89.5107,VALID,0,VALID,23.9159,VALID,26,VALID,0.294922,
2009-07-19, 01:33:05,VALID,1000.42,VALID,0,VALID,89.6557,VALID,0,VALID,23.9159,VALID,26,VALID,0.385938,
2009-07-19, 01:34:05,VALID,1000.44,VALID,0,VALID,89.6251,VALID,0,VALID,23.9159,VALID,26,VALID,0.235156,
2009-07-19, 01:35:05,VALID,1000.4,VALID,0,VALID,89.6099,VALID,0,VALID,23.9354,VALID,26,VALID,0.379297,
2009-07-19, 01:36:05,VALID,1000.43,VALID,0,VALID,89.5489,VALID,0,VALID,23.9957,VALID,26,VALID,0.494141,
2009-07-19, 01:37:05,VALID,1000.43,VALID,0,VALID,89.4802,VALID,0,VALID,23.9939,VALID,26,VALID,0.55625,
2009-07-19, 01:38:05,VALID,1000.42,VALID,0,VALID,89.4649,VALID,0,VALID,24.0134,VALID,26,VALID,0.39375,
2009-07-19, 01:39:05,VALID,1000.39,VALID,0,VALID,89.3886,VALID,0,VALID,24.0134,VALID,26,VALID,0.442578,
2009-07-19, 01:40:05,VALID,1000.4,VALID,0,VALID,89.2208,VALID,0,VALID,24.0348,VALID,26,VALID,0.345703,
2009-07-19, 01:41:05,VALID,1000.37,VALID,0,VALID,89.3428,VALID,0.112286,VALID,24.0116,VALID,26,VALID,0.0648438,
2009-07-19, 01:42:05,VALID,1000.36,VALID,0,VALID,89.2894,VALID,0,VALID,24.0116,VALID,26,VALID,0,
2009-07-19, 01:43:05,VALID,1000.34,VALID,0,VALID,89.1292,VALID,0,VALID,24.0134,VALID,26,VALID,0.156641,
2009-07-19, 01:44:05,VALID,1000.32,VALID,0,VALID,89.0987,VALID,0,VALID,24.0134,VALID,26,VALID,0.318359,
2009-07-19, 01:45:05,VALID,1000.31,VALID,0,VALID,89.114,VALID,0,VALID,23.9921,VALID,26,VALID,0.239453,
2009-07-19, 01:46:05,VALID,1000.3,VALID,0,VALID,89.2208,VALID,0,VALID,23.9921,VALID,26,VALID,0.280859,
2009-07-19, 01:47:05,VALID,1000.32,VALID,0,VALID,89.1826,VALID,0,VALID,24.0116,VALID,26,VALID,0.138672,
2009-07-19, 01:48:05,VALID,1000.32,VALID,0,VALID,89.1445,VALID,0,VALID,24.0311,VALID,26,VALID,0.0183594,
2009-07-19, 01:49:05,VALID,1000.32,VALID,0,VALID,89.1521,VALID,0.112286,VALID,24.0311,VALID,26,VALID,0.173047,
2009-07-19, 01:50:05,VALID,1000.34,VALID,0,VALID,89.2055,VALID,0,VALID,24.0311,VALID,26,VALID,0.182422,
2009-07-19, 01:51:05,VALID,1000.33,VALID,0,VALID,89.1521,VALID,0,VALID,24.0506,VALID,26,VALID,0.194141,
2009-07-19, 01:52:05,VALID,1000.32,VALID,0,VALID,89.0148,VALID,0.112286,VALID,24.0701,VALID,26,VALID,0.228125,
2009-07-19, 01:53:05,VALID,1000.36,VALID,0,VALID,89.03,VALID,0,VALID,24.0897,VALID,26,VALID,0.401563,
2009-07-19, 01:54:05,VALID,1000.36,VALID,0,VALID,89.0071,VALID,0.112286,VALID,24.0897,VALID,26,VALID,0.362891,
2009-07-19, 01:55:05,VALID,1000.37,VALID,0,VALID,89.03,VALID,0,VALID,24.0897,VALID,26,VALID,0.366797,
2009-07-19, 01:56:05,VALID,1000.36,VALID,0,VALID,89.0911,VALID,0,VALID,24.0915,VALID,26,VALID,0.286328,
2009-07-19, 01:57:05,VALID,1000.35,VALID,0,VALID,89.1826,VALID,0,VALID,24.0915,VALID,26,VALID,0.254297,
2009-07-19, 01:58:05,VALID,1000.34,VALID,0,VALID,89.1903,VALID,0,VALID,24.0915,VALID,26,VALID,0.305469,
2009-07-19, 01:59:05,VALID,1000.33,VALID,0,VALID,89.1521,VALID,0,VALID,24.072,VALID,26,VALID,0.343359,
2009-07-19, 02:00:05,VALID,1000.3,VALID,0,VALID,89.1216,VALID,0,VALID,24.0738,VALID,26,VALID,0.416016,
2009-07-19, 02:01:05,VALID,1000.27,VALID,0,VALID,89.2284,VALID,0,VALID,24.0348,VALID,26,VALID,0.366016,
2009-07-19, 02:02:05,VALID,1000.29,VALID,0,VALID,89.3123,VALID,0,VALID,23.9939,VALID,26,VALID,0.355859,
2009-07-19, 02:03:05,VALID,1000.26,VALID,0,VALID,89.3581,VALID,0,VALID,23.9549,VALID,26,VALID,0.363281,
2009-07-19, 02:04:05,VALID,1000.26,VALID,0,VALID,89.587,VALID,0,VALID,23.9354,VALID,26,VALID,0.323828,
2009-07-19, 02:05:05,VALID,1000.27,VALID,0,VALID,89.7243,VALID,0,VALID,23.9354,VALID,26,VALID,0.283984,
2009-07-19, 02:06:05,VALID,1000.23,VALID,0,VALID,89.7549,VALID,0,VALID,23.9159,VALID,26,VALID,0.264844,
2009-07-19, 02:07:05,VALID,1000.26,VALID,0,VALID,89.6404,VALID,0,VALID,23.9159,VALID,26,VALID,0.243359,
2009-07-19, 02:08:05,VALID,1000.22,VALID,0,VALID,89.8235,VALID,0,VALID,23.8963,VALID,26,VALID,0.176563,
2009-07-19, 02:09:05,VALID,1000.26,VALID,0,VALID,89.9151,VALID,0,VALID,23.8786,VALID,26,VALID,0.227734,
2009-07-19, 02:10:05,VALID,1000.22,VALID,0,VALID,90.0753,VALID,0,VALID,23.8378,VALID,26,VALID,0.163281,
2009-07-19, 02:11:05,VALID,1000.18,VALID,0,VALID,90.0524,VALID,0,VALID,23.8378,VALID,26,VALID,0.253516,
2009-07-19, 02:12:05,VALID,1000.2,VALID,0,VALID,90.0677,VALID,0,VALID,23.8396,VALID,26,VALID,0.153906,
2009-07-19, 02:13:05,VALID,1000.18,VALID,0,VALID,90.1363,VALID,0,VALID,23.8183,VALID,26,VALID,0.171484,
2009-07-19, 02:14:05,VALID,1000.18,VALID,0,VALID,90.1287,VALID,0,VALID,23.8396,VALID,26,VALID,0.160938,
2009-07-19, 02:15:05,VALID,1000.2,VALID,0,VALID,89.999,VALID,0,VALID,23.8183,VALID,26,VALID,0,
2009-07-19, 02:16:05,VALID,1000.2,VALID,0,VALID,89.9837,VALID,0,VALID,23.8183,VALID,26,VALID,0,
2009-07-19, 02:17:05,VALID,1000.22,VALID,0,VALID,90.06,VALID,0,VALID,23.7988,VALID,26,VALID,0,
2009-07-19, 02:18:05,VALID,1000.23,VALID,0,VALID,90.0906,VALID,0,VALID,23.8378,VALID,26,VALID,0,
2009-07-19, 02:19:05,VALID,1000.22,VALID,0,VALID,90.1211,VALID,0,VALID,23.8396,VALID,26,VALID,0.283984,
2009-07-19, 02:20:05,VALID,1000.23,VALID,0,VALID,90.1211,VALID,0,VALID,23.8591,VALID,26,VALID,0,
2009-07-19, 02:21:05,VALID,1000.22,VALID,0,VALID,90.1592,VALID,0,VALID,23.8786,VALID,26,VALID,0,
2009-07-19, 02:22:05,VALID,1000.24,VALID,0,VALID,90.1211,VALID,0,VALID,23.8591,VALID,26,VALID,0.551172,
2009-07-19, 02:23:05,VALID,1000.23,VALID,0,VALID,90.0753,VALID,0,VALID,23.8378,VALID,26,VALID,0.571875,
2009-07-19, 02:24:05,VALID,1000.22,VALID,0,VALID,90.1974,VALID,0,VALID,23.8591,VALID,26,VALID,0.503516,
2009-07-19, 02:25:05,VALID,1000.23,VALID,0,VALID,90.3423,VALID,0,VALID,23.8183,VALID,26,VALID,0.569141,
2009-07-19, 02:26:05,VALID,1000.22,VALID,0,VALID,90.3576,VALID,0,VALID,23.8201,VALID,26,VALID,0.60625,
2009-07-19, 02:27:05,VALID,1000.21,VALID,0,VALID,90.5865,VALID,0,VALID,23.8006,VALID,26,VALID,0.596875,
2009-07-19, 02:28:05,VALID,1000.2,VALID,0,VALID,90.4415,VALID,0,VALID,23.7811,VALID,26,VALID,0.723047,
2009-07-19, 02:29:05,VALID,1000.19,VALID,0,VALID,90.7085,VALID,0,VALID,23.7207,VALID,26,VALID,0.880469,
2009-07-19, 02:30:05,VALID,1000.2,VALID,0,VALID,91.0137,VALID,0,VALID,23.742,VALID,26,VALID,0.923047,
2009-07-19, 02:31:05,VALID,1000.17,VALID,0,VALID,90.9451,VALID,0,VALID,23.7012,VALID,26,VALID,0.934375,
2009-07-19, 02:32:05,VALID,1000.2,VALID,0,VALID,90.6323,VALID,0,VALID,23.6817,VALID,34,VALID,1.09766,
2009-07-19, 02:33:05,VALID,1000.2,VALID,0,VALID,90.9374,VALID,0,VALID,23.6427,VALID,48,VALID,1.20898,
2009-07-19, 02:34:05,VALID,1000.17,VALID,0,VALID,91.2197,VALID,0,VALID,23.6427,VALID,50,VALID,1.01484,
2009-07-19, 02:35:05,VALID,1000.19,VALID,0,VALID,91.4181,VALID,0,VALID,23.6427,VALID,50,VALID,0.991406,
2009-07-19, 02:36:05,VALID,1000.18,VALID,0,VALID,91.502,VALID,0,VALID,23.6835,VALID,50,VALID,0.840234,
2009-07-19, 02:37:05,VALID,1000.15,VALID,0,VALID,91.4105,VALID,0,VALID,23.6427,VALID,48,VALID,0.739062,
2009-07-19, 02:38:05,VALID,1000.15,VALID,0,VALID,91.3494,VALID,0,VALID,23.6445,VALID,43,VALID,0.700391,
2009-07-19, 02:39:05,VALID,1000.17,VALID,0,VALID,91.3037,VALID,0,VALID,23.6036,VALID,43,VALID,0.415234,
2009-07-19, 02:40:05,VALID,1000.15,VALID,0,VALID,91.1816,VALID,0,VALID,23.5646,VALID,43,VALID,0.501953,
2009-07-19, 02:41:05,VALID,1000.15,VALID,0,VALID,90.9527,VALID,0,VALID,23.5469,VALID,43,VALID,0.600781,
2009-07-19, 02:42:05,VALID,1000.14,VALID,0,VALID,90.9374,VALID,0,VALID,23.5079,VALID,43,VALID,0.751172,
2009-07-19, 02:43:05,VALID,1000.15,VALID,0,VALID,90.9985,VALID,0,VALID,23.5079,VALID,43,VALID,0.791016,
2009-07-19, 02:44:05,VALID,1000.15,VALID,0,VALID,91.1282,VALID,0,VALID,23.5256,VALID,43,VALID,0.958984,
2009-07-19, 02:45:05,VALID,1000.16,VALID,0,VALID,90.823,VALID,0,VALID,23.5256,VALID,43,VALID,0.983203,
2009-07-19, 02:46:05,VALID,1000.16,VALID,0,VALID,90.5865,VALID,0,VALID,23.5061,VALID,42,VALID,0.926953,
2009-07-19, 02:47:05,VALID,1000.18,VALID,0,VALID,90.1592,VALID,0,VALID,23.4866,VALID,28,VALID,0.864062,
2009-07-19, 02:48:05,VALID,1000.17,VALID,0,VALID,89.732,VALID,0,VALID,23.428,VALID,26,VALID,0.846875,
2009-07-19, 02:49:05,VALID,1000.18,VALID,0,VALID,89.5412,VALID,0,VALID,23.4085,VALID,19,VALID,0.954687,
2009-07-19, 02:50:05,VALID,1000.19,VALID,0,VALID,89.6099,VALID,0,VALID,23.4085,VALID,17,VALID,0.795313,
2009-07-19, 02:51:05,VALID,1000.17,VALID,0,VALID,89.6938,VALID,0,VALID,23.428,VALID,14,VALID,0.948828,
2009-07-19, 02:52:05,VALID,1000.2,VALID,0,VALID,89.6404,VALID,0,VALID,23.428,VALID,14,VALID,0.921484,
2009-07-19, 02:53:05,VALID,1000.21,VALID,0,VALID,89.7396,VALID,0,VALID,23.4085,VALID,10,VALID,0.95625,
2009-07-19, 02:54:05,VALID,1000.23,VALID,0,VALID,89.8388,VALID,0,VALID,23.389,VALID,10,VALID,0.930859,
2009-07-19, 02:55:05,VALID,1000.2,VALID,0,VALID,89.8617,VALID,0,VALID,23.389,VALID,10,VALID,0.835938,
2009-07-19, 02:56:05,VALID,1000.25,VALID,0,VALID,89.6709,VALID,0,VALID,23.3695,VALID,15,VALID,0.943359,
2009-07-19, 02:57:05,VALID,1000.23,VALID,0,VALID,89.4344,VALID,0,VALID,23.3695,VALID,19,VALID,1.26211,
2009-07-19, 02:58:05,VALID,1000.22,VALID,0,VALID,89.3505,VALID,0,VALID,23.3695,VALID,28,VALID,1.36641,
2009-07-19, 02:59:05,VALID,1000.22,VALID,0,VALID,89.3123,VALID,0,VALID,23.35,VALID,31,VALID,1.43086,
2009-07-19, 03:00:05,VALID,1000.25,VALID,0,VALID,89.3428,VALID,0,VALID,23.35,VALID,39,VALID,1.3793,
2009-07-19, 03:01:05,VALID,1000.22,VALID,0,VALID,89.4268,VALID,0,VALID,23.3305,VALID,42,VALID,1.39258,
2009-07-19, 03:02:05,VALID,1000.22,VALID,0,VALID,89.442,VALID,0,VALID,23.3305,VALID,46,VALID,1.28281,
2009-07-19, 03:03:05,VALID,1000.22,VALID,0,VALID,89.3657,VALID,0,VALID,23.35,VALID,43,VALID,1.24961,
2009-07-19, 03:04:05,VALID,1000.23,VALID,0,VALID,89.3734,VALID,0,VALID,23.3713,VALID,42,VALID,1.05703,
2009-07-19, 03:05:05,VALID,1000.2,VALID,0,VALID,89.3047,VALID,0,VALID,23.3908,VALID,41,VALID,0.727734,
2009-07-19, 03:06:05,VALID,1000.17,VALID,0,VALID,89.2666,VALID,0,VALID,23.3518,VALID,30,VALID,0.517187,
2009-07-19, 03:07:05,VALID,1000.16,VALID,0,VALID,89.3657,VALID,0,VALID,23.3305,VALID,29,VALID,0.464063,
2009-07-19, 03:08:05,VALID,1000.15,VALID,0,VALID,89.5336,VALID,0,VALID,23.3305,VALID,340,VALID,0.526953,
2009-07-19, 03:09:05,VALID,1000.13,VALID,0,VALID,89.587,VALID,0,VALID,23.35,VALID,340,VALID,0.359766,
2009-07-19, 03:10:05,VALID,1000.13,VALID,0,VALID,89.4726,VALID,0,VALID,23.3518,VALID,340,VALID,0.326953,
2009-07-19, 03:11:05,VALID,1000.12,VALID,0,VALID,89.4115,VALID,0.112286,VALID,23.3482,VALID,340,VALID,0.178516,
2009-07-19, 03:12:05,VALID,1000.11,VALID,0,VALID,89.3657,VALID,0.112286,VALID,23.3482,VALID,340,VALID,0,
2009-07-19, 03:13:05,VALID,1000.09,VALID,0,VALID,89.4344,VALID,0.112286,VALID,23.3677,VALID,340,VALID,0.1,
2009-07-19, 03:14:05,VALID,1000.12,VALID,0,VALID,89.4726,VALID,0,VALID,23.389,VALID,340,VALID,0.217969,
2009-07-19, 03:15:05,VALID,1000.11,VALID,0,VALID,89.4191,VALID,0.112286,VALID,23.3677,VALID,340,VALID,0.283203,
2009-07-19, 03:16:05,VALID,1000.14,VALID,0,VALID,89.4344,VALID,0.112286,VALID,23.3677,VALID,340,VALID,0.321094,
2009-07-19, 03:17:05,VALID,1000.12,VALID,0,VALID,89.4649,VALID,0.112286,VALID,23.3677,VALID,340,VALID,0.301172,
2009-07-19, 03:18:05,VALID,1000.1,VALID,0,VALID,89.5412,VALID,0.112286,VALID,23.3482,VALID,340,VALID,0.325,
2009-07-19, 03:19:05,VALID,1000.13,VALID,0,VALID,89.5336,VALID,0.112286,VALID,23.3482,VALID,340,VALID,0.332812,
2009-07-19, 03:20:05,VALID,1000.15,VALID,0,VALID,89.6786,VALID,0.112286,VALID,23.3482,VALID,340,VALID,0.294922,
2009-07-19, 03:21:05,VALID,1000.12,VALID,0,VALID,89.7625,VALID,0.112286,VALID,23.3482,VALID,340,VALID,0.367578,
2009-07-19, 03:22:05,VALID,1000.16,VALID,0,VALID,90.0066,VALID,0.112286,VALID,23.3287,VALID,340,VALID,0.376563,
2009-07-19, 03:23:05,VALID,1000.15,VALID,0,VALID,90.205,VALID,0.112286,VALID,23.3287,VALID,340,VALID,0.328906,
2009-07-19, 03:24:05,VALID,1000.15,VALID,0,VALID,90.3042,VALID,0,VALID,23.3482,VALID,340,VALID,0.279687,
2009-07-19, 03:25:05,VALID,1000.14,VALID,0,VALID,90.2355,VALID,0.112286,VALID,23.3287,VALID,340,VALID,0.316406,
2009-07-19, 03:26:05,VALID,1000.15,VALID,0,VALID,90.3576,VALID,0,VALID,23.3305,VALID,340,VALID,0.275781,
2009-07-19, 03:27:05,VALID,1000.16,VALID,0,VALID,90.5178,VALID,0,VALID,23.3518,VALID,340,VALID,0.346484,
2009-07-19, 03:28:05,VALID,1000.19,VALID,0,VALID,90.5483,VALID,0,VALID,23.3305,VALID,340,VALID,0.419922,
2009-07-19, 03:29:05,VALID,1000.16,VALID,0,VALID,90.617,VALID,0,VALID,23.311,VALID,340,VALID,0.547656,
2009-07-19, 03:30:05,VALID,1000.17,VALID,0,VALID,90.5636,VALID,0,VALID,23.311,VALID,340,VALID,0.587891,
2009-07-19, 03:31:05,VALID,1000.18,VALID,0,VALID,90.6933,VALID,0,VALID,23.2915,VALID,340,VALID,0.507813,
2009-07-19, 03:32:05,VALID,1000.15,VALID,0,VALID,90.6551,VALID,0,VALID,23.311,VALID,340,VALID,0.445703,
2009-07-19, 03:33:05,VALID,1000.18,VALID,0,VALID,90.4415,VALID,0,VALID,23.311,VALID,340,VALID,0.330078,
2009-07-19, 03:34:05,VALID,1000.21,VALID,0,VALID,90.2279,VALID,0,VALID,23.2915,VALID,340,VALID,0.219531,
2009-07-19, 03:35:05,VALID,1000.18,VALID,0,VALID,90.06,VALID,0,VALID,23.2524,VALID,340,VALID,0.305859,
2009-07-19, 03:36:04,VALID,1000.18,VALID,0,VALID,90.2813,VALID,0,VALID,23.2524,VALID,340,VALID,0.365234,
2009-07-19, 03:37:04,VALID,1000.2,VALID,0,VALID,90.5178,VALID,0,VALID,23.2329,VALID,340,VALID,0.425391,
2009-07-19, 03:38:04,VALID,1000.15,VALID,0,VALID,90.5178,VALID,0,VALID,23.2542,VALID,340,VALID,0.405078,
2009-07-19, 03:39:04,VALID,1000.18,VALID,0,VALID,90.6246,VALID,0,VALID,23.2542,VALID,340,VALID,0.615625,
2009-07-19, 03:40:04,VALID,1000.2,VALID,0,VALID,90.6857,VALID,0,VALID,23.2524,VALID,340,VALID,0.5625,
2009-07-19, 03:41:04,VALID,1000.18,VALID,0,VALID,90.5865,VALID,0,VALID,23.2719,VALID,340,VALID,0.558594,
2009-07-19, 03:42:04,VALID,1000.17,VALID,0,VALID,90.6933,VALID,0,VALID,23.2915,VALID,340,VALID,0.651563,
2009-07-19, 03:43:04,VALID,1000.18,VALID,0,VALID,90.5712,VALID,0,VALID,23.3305,VALID,340,VALID,0.733594,
2009-07-19, 03:44:04,VALID,1000.19,VALID,0,VALID,90.3347,VALID,0,VALID,23.3305,VALID,340,VALID,0.744531,
2009-07-19, 03:45:04,VALID,1000.19,VALID,0,VALID,89.8464,VALID,0,VALID,23.311,VALID,340,VALID,0.646094,
2009-07-19, 03:46:04,VALID,1000.22,VALID,0,VALID,89.6404,VALID,0,VALID,23.3127,VALID,340,VALID,0.569141,